Location: Unspecified
(47.8330°N, 0.0000°E)
Time: 12:30:25
(UTC+00:00)

ISS - Visible Passes

Search period start: 17 October 2019 00:00
Search period end: 27 October 2019 00:00
Orbit: 411 x 421 km, 51.6° (Epoch: 17 October)

Date Brightness Start Highest point End Pass type
(mag) Time Alt. Az. Time Alt. Az. Time Alt. Az.
23 Oct -0.6 05:37:18 10° SSE 05:38:43 12° SE 05:40:07 10° ESE visible
25 Oct -1.7 05:35:01 10° SSW 05:37:55 27° SE 05:40:50 10° E visible
26 Oct -1.1 04:47:09 10° S 04:49:31 18° SE 04:51:52 10° E visible
